Back to catalog

STARLINK-32697

AliveCommunicationsVLEO
NORAD 62436·PAYLOAD·🇺🇸 United States

Launched Dec 29, 2024 from Vandenberg Space Force Base

Loading…

Next Passes (next 24 hours)

TLE

FreshSource: CelesTrak SupGP

Epoch: Sep 14, 2026, 21:38 UTC

1 62436C 24251E   26257.90187500 -.00017699  00000+0 -52271-3 0  2577
2 62436  53.1582 175.5725 0001238  92.5456 131.2982 15.34411391    13

Track STARLINK-32697 in real time with AllMySat

Download on the App Store